Wind_Speed
30 28 28 28 28 27 26 26 26 26 25 25 26 27 29 29 29 30 30 30 29 30 29 27 25 25 24 24 24 23 22 23 23 22 21 20 19 17 17 17 16 14 12
29 29 29 29 29 28 27 27 26 25 25 25 25 25 28 29 29 30 31 30 30 30 29 27 25 25 25 25 24 24 23 23 24 25 24 23 22 20 19 18 17 16 14
30 30 30 30 30 30 29 27 27 25 25 24 23 23 24 27 28 30 30 31 31 30 29 27 26 25 25 25 25 25 24 24 24 25 25 25 25 24 22 20 19 17 16
33 32 31 31 31 31 30 29 27 26 25 24 23 24 24 26 27 28 29 30 31 30 29 29 28 26 26 27 26 25 25 24 24 25 25 25 26 26 25 24 22 20 18
34 33 32 32 32 32 31 30 28 26 25 25 23 22 23 24 26 28 29 29 30 30 31 30 29 29 28 28 27 26 26 25 25 25 25 26 26 27 28 27 25 24 22
34 34 34 34 33 33 33 31 29 27 26 25 23 22 22 22 24 26 27 28 28 30 31 31 31 30 30 30 29 28 28 26 26 26 25 25 26 26 27 28 28 26 25
35 35 35 35 35 34 34 33 32 29 28 26 24 23 23 22 22 25 26 27 28 30 30 29 31 31 32 32 31 30 29 29 27 26 26 26 26 26 27 27 28 29 29
35 35 35 36 36 35 35 35 34 32 31 29 27 25 24 23 23 24 26 27 29 30 30 30 31 31 32 33 33 32 31 30 29 28 28 28 28 28 28 28 28 29 30
33 33 33 34 35 35 35 35 35 34 33 32 29 28 26 25 24 24 25 26 27 29 30 30 32 31 32 34 34 34 33 32 31 30 30 30 30 30 29 30 29 29 29
34 34 33 32 32 33 33 34 34 34 34 34 32 31 30 28 27 26 25 25 27 28 30 32 33 32 32 33 33 34 34 33 32 31 31 30 30 31 30 30 30 29 28
36 35 34 32 31 31 31 31 32 33 34 35 35 34 32 31 30 29 27 26 27 28 30 33 34 34 33 33 33 33 34 34 33 32 31 31 30 30 30 30 30 29 28
37 37 35 33 32 31 30 30 30 30 31 33 35 36 36 34 33 32 30 29 28 29 30 32 34 35 35 35 35 36 36 35 34 33 32 31 30 29 29 29 29 29 28
38 38 38 36 34 32 30 30 31 31 31 31 33 35 37 37 37 35 33 32 31 30 30 32 34 36 36 36 37 38 37 36 35 33 32 31 30 29 28 28 28 27 27
39 40 40 39 37 35 33 32 32 33 34 33 34 35 36 37 39 39 37 35 33 32 31 32 33 35 37 38 39 39 39 37 36 34 32 31 30 29 28 28 27 26 26
41 40 41 41 41 39 37 36 34 35 36 36 36 37 37 38 39 41 41 39 36 34 33 33 34 36 38 39 40 40 40 39 37 35 33 31 30 29 28 27 26 25 25
42 42 42 42 42 41 41 40 39 38 38 39 39 39 40 41 41 41 43 43 41 38 35 35 35 37 39 41 42 43 42 40 38 36 34 32 30 29 27 26 25 24 23
42 42 42 41 41 42 42 42 42 42 41 41 42 43 43 45 45 44 44 45 44 43 40 38 38 38 41 43 44 45 43 42 40 38 36 33 31 30 28 25 24 22 21
42 41 41 41 41 41 42 43 44 44 44 44 44 45 46 48 49 49 48 47 47 47 44 42 42 41 41 44 45 46 45 44 42 41 38 35 33 31 28 26 23 21 20
41 40 39 40 41 42 42 44 45 46 47 48 48 48 49 50 52 53 53 52 50 49 49 47 45 44 44 45 47 47 46 45 44 42 40 38 35 32 29 27 24 22 20
39 39 39 40 41 42 43 45 46 47 49 50 51 51 52 53 54 56 57 57 55 53 52 51 48 46 47 47 48 48 47 47 45 44 42 40 37 34 31 28 26 23 20
39 39 39 40 42 43 44 45 46 47 49 50 52 53 53 54 55 58 60 61 60 58 56 55 53 50 49 49 48 48 48 48 47 45 43 42 40 37 33 30 26 24 22
39 39 40 41 42 43 44 45 45 46 47 48 50 52 54 54 55 57 60 63 64 63 60 59 56 54 51 49 49 48 49 49 48 47 45 43 42 38 35 31 27 24 22
39 40 41 42 41 42 43 43 44 45 46 46 47 49 51 52 54 56 59 63 66 67 65 63 60 57 54 51 50 49 49 50 49 48 47 44 43 40 37 32 28 25 23
40 41 41 41 41 41 41 42 43 44 43 44 45 47 48 50 52 54 57 62 66 68 68 65 62 59 58 54 51 49 50 51 50 49 48 45 44 41 38 34 30 26 24
40 40 40 40 40 40 41 41 41 42 41 42 43 43 44 47 50 52 55 60 65 68 70 69 67 63 61 58 54 52 51 51 50 49 48 46 45 43 40 36 32 28 25
40 39 38 38 39 39 39 39 39 38 37 36 36 38 40 43 46 49 52 57 63 67 70 71 68 65 62 60 56 53 51 49 49 48 48 48 46 44 41 38 34 30 27
Wind_Direction
297 296 294 292 291 292 292 291 293 294 292 285 279 272 262 257 250 243 239 238 237 238 239 240 243 246 247 247 245 243 242 240 238 235 232 230 229 228 227 228 231 233 234
294 293 292 290 290 291 291 289 290 293 292 289 279 272 265 258 252 246 241 237 237 238 239 241 241 243 243 243 241 239 238 236 235 234 231 229 228 228 228 227 229 232 233
293 292 291 289 288 288 289 289 289 289 288 288 278 270 265 258 251 247 242 238 237 237 237 236 235 237 238 237 236 236 235 234 233 233 231 229 228 229 228 228 228 229 231
291 290 288 286 285 285 285 286 286 286 286 286 280 271 263 256 250 245 243 240 237 234 233 233 234 233 233 233 231 230 230 232 232 232 232 232 230 229 229 228 228 228 229
288 286 285 283 282 282 282 282 282 282 282 282 280 274 264 256 248 242 244 241 236 234 233 232 231 231 231 229 227 225 226 228 228 229 231 232 231 231 230 229 228 228 229
286 284 283 281 280 279 279 279 279 278 277 278 276 272 266 258 251 245 243 239 236 234 233 230 228 229 228 225 224 223 223 223 224 227 228 229 229 230 232 231 229 229 229
286 284 282 280 279 278 277 277 276 275 273 273 272 268 265 261 257 251 245 241 239 235 232 229 227 228 228 224 223 222 221 222 222 224 225 226 227 229 230 231 231 231 231
285 283 281 280 278 277 276 275 274 272 271 269 267 265 262 259 257 254 249 245 241 237 234 230 229 229 226 223 222 222 221 221 222 223 225 227 227 229 230 231 231 232 233
289 286 283 281 279 277 274 272 270 268 267 264 261 259 257 255 254 253 251 248 243 239 234 231 228 227 225 223 222 220 220 220 221 222 224 226 227 228 230 231 231 233 234
294 292 289 286 282 278 275 271 268 264 262 260 257 255 253 252 251 249 249 248 245 240 233 229 225 224 225 221 218 216 217 218 220 222 223 225 227 228 229 230 231 232 234
297 295 293 290 286 282 278 273 268 264 259 256 254 251 249 248 247 246 245 244 244 241 234 229 224 223 222 221 217 215 215 218 220 221 222 223 225 226 228 229 231 232 232
298 296 294 292 289 285 280 275 270 265 259 255 252 249 246 244 241 241 241 241 241 240 236 230 224 222 221 218 215 215 216 218 220 220 220 221 222 224 225 227 229 230 231
297 296 294 291 288 285 280 274 270 266 260 255 252 249 246 242 239 237 236 238 238 237 236 231 225 220 218 218 216 217 217 218 218 218 217 218 219 220 221 222 225 227 229
295 294 292 289 286 283 278 273 268 266 262 257 252 249 246 243 240 237 234 233 233 233 233 231 227 222 219 217 217 218 218 218 217 215 214 215 215 216 217 219 221 223 225
293 291 289 286 284 281 278 274 269 265 262 258 254 249 246 244 241 238 234 231 230 230 229 229 227 222 218 217 218 219 218 218 215 213 211 211 212 213 214 216 217 219 221
293 290 287 284 281 279 277 275 272 268 263 259 255 251 247 243 241 238 235 232 229 228 226 225 224 221 216 216 217 218 218 217 214 211 210 210 209 209 210 212 214 216 218
293 289 286 283 280 279 277 276 274 271 266 262 257 253 249 244 240 238 235 233 230 226 223 223 223 221 217 215 215 217 217 215 213 211 210 208 207 208 208 207 209 211 213
295 291 287 284 282 280 279 277 275 272 269 265 260 256 251 245 240 237 235 233 230 227 224 222 221 220 218 215 215 216 216 214 213 211 209 208 207 206 205 205 207 210 213
298 294 291 288 285 283 281 279 276 273 270 267 263 258 253 247 241 237 234 232 230 227 225 222 220 218 217 215 214 215 215 214 213 212 210 208 207 205 205 206 209 211 215
301 297 294 291 288 286 284 281 278 274 271 268 264 260 255 249 243 237 233 231 229 227 225 223 220 218 217 215 213 213 213 213 213 212 211 209 208 207 208 209 211 214 217
304 300 297 294 291 289 287 283 280 276 272 269 265 261 256 250 244 238 233 230 228 226 225 223 220 218 217 214 212 211 212 213 213 212 211 210 209 208 209 211 212 215 220
307 303 300 298 295 293 290 286 282 279 275 271 266 261 256 251 245 239 233 228 226 225 223 222 220 218 217 214 212 211 211 212 213 212 212 211 210 210 210 212 213 216 221
310 307 305 302 299 296 293 290 287 282 278 273 267 260 255 250 244 238 232 226 223 222 221 221 219 218 217 214 213 212 211 211 212 212 212 212 211 211 211 212 214 217 221
314 312 308 306 303 300 297 294 290 286 281 274 268 260 254 248 243 236 230 224 220 219 218 218 218 217 216 214 212 211 211 210 212 213 212 212 212 212 211 212 214 217 221
318 316 312 309 307 304 300 297 293 289 283 275 269 260 252 245 239 233 227 222 218 215 215 215 215 215 215 214 212 211 210 210 211 211 212 212 213 213 212 213 214 217 221
321 319 316 314 312 310 305 301 298 293 286 278 268 258 249 240 234 228 223 218 215 213 212 213 213 212 213 212 212 211 210 210 211 211 211 212 213 213 213 214 215 217 221
Height
5857 5855 5853 5851 5849 5847 5845 5843 5841 5840 5838 5838 5838 5838 5839 5840 5842 5845 5849 5852 5855 5857 5859 5861 5865 5868 5870 5873 5875 5878 5880 5882 5885 5887 5890 5892 5894 5897 5899 5902 5904 5905 5907
5851 5849 5847 5845 5843 5841 5839 5838 5836 5834 5833 5832 5832 5832 5833 5834 5836 5838 5841 5845 5847 5850 5852 5855 5859 5862 5865 5867 5870 5872 5875 5877 5880 5882 5885 5888 5890 5893 5896 5899 5901 5903 5905
5844 5842 5840 5838 5836 5834 5833 5831 5830 5829 5828 5827 5826 5826 5826 5828 5829 5831 5834 5837 5840 5843 5846 5849 5852 5855 5859 5862 5865 5867 5870 5872 5874 5877 5880 5883 5886 5889 5892 5895 5898 5900 5902
5836 5835 5833 5831 5829 5827 5826 5825 5824 5823 5822 5821 5820 5820 5820 5822 5823 5825 5827 5830 5833 5836 5839 5843 5846 5849 5853 5856 5859 5862 5865 5867 5870 5872 5875 5878 5881 5884 5887 5891 5894 5896 5899
5828 5827 5825 5823 5821 5820 5818 5818 5817 5816 5816 5815 5814 5814 5815 5816 5817 5819 5821 5824 5827 5830 5833 5836 5839 5844 5847 5851 5854 5857 5860 5863 5865 5868 5870 5873 5875 5879 5882 5885 5889 5892 5895
5820 5818 5816 5814 5813 5812 5811 5810 5810 5810 5809 5809 5808 5808 5809 5810 5810 5813 5815 5817 5820 5823 5826 5830 5833 5837 5841 5845 5848 5851 5855 5858 5860 5863 5866 5868 5871 5873 5876 5880 5883 5887 5890
5810 5809 5807 5805 5804 5803 5802 5802 5802 5802 5802 5802 5802 5802 5803 5804 5805 5807 5809 5811 5814 5817 5820 5823 5827 5831 5834 5838 5842 5846 5849 5852 5855 5858 5861 5864 5866 5868 5871 5874 5877 5881 5884
5801 5799 5797 5795 5794 5793 5793 5792 5792 5793 5793 5794 5795 5795 5796 5798 5799 5801 5803 5805 5807 5810 5813 5816 5820 5824 5827 5832 5836 5840 5843 5847 5850 5853 5856 5859 5861 5864 5866 5869 5872 5875 5878
5790 5789 5787 5785 5783 5783 5782 5782 5782 5783 5784 5785 5786 5788 5789 5791 5792 5794 5796 5798 5800 5803 5806 5810 5814 5817 5821 5825 5829 5833 5837 5841 5844 5847 5850 5853 5855 5858 5861 5864 5867 5869 5872
5780 5778 5776 5775 5773 5772 5771 5771 5771 5772 5773 5774 5776 5778 5780 5782 5785 5787 5789 5791 5793 5796 5799 5803 5806 5810 5814 5818 5822 5826 5830 5834 5838 5841 5844 5847 5850 5852 5855 5858 5861 5864 5866
5769 5767 5766 5764 5762 5761 5760 5760 5760 5761 5762 5764 5765 5768 5770 5773 5776 5778 5781 5783 5786 5789 5792 5795 5799 5803 5807 5811 5816 5820 5824 5828 5832 5835 5838 5841 5844 5847 5849 5852 5855 5858 5861
5759 5756 5755 5753 5752 5751 5750 5749 5749 5750 5752 5753 5754 5757 5760 5763 5766 5769 5772 5775 5778 5781 5784 5788 5791 5795 5800 5804 5809 5813 5817 5821 5825 5829 5832 5835 5839 5841 5844 5847 5850 5852 5855
5749 5746 5744 5742 5741 5740 5740 5739 5739 5740 5741 5743 5744 5746 5749 5752 5755 5759 5762 5766 5769 5772 5776 5780 5784 5788 5792 5797 5801 5806 5810 5814 5819 5822 5826 5830 5833 5836 5839 5842 5845 5847 5850
5740 5736 5733 5731 5729 5729 5729 5728 5729 5729 5730 5732 5734 5736 5738 5741 5744 5748 5752 5756 5759 5763 5768 5771 5775 5780 5784 5789 5794 5798 5803 5808 5812 5816 5820 5824 5828 5831 5834 5837 5839 5842 5845
5729 5725 5722 5719 5717 5716 5715 5716 5717 5717 5718 5720 5722 5724 5727 5730 5733 5737 5741 5745 5750 5754 5758 5762 5767 5771 5776 5781 5786 5791 5796 5801 5806 5810 5815 5819 5822 5826 5829 5832 5835 5837 5840
5718 5714 5710 5707 5704 5702 5701 5702 5702 5703 5704 5706 5708 5711 5715 5718 5721 5725 5729 5733 5738 5743 5748 5752 5757 5762 5767 5773 5778 5783 5789 5795 5800 5805 5809 5813 5817 5821 5824 5828 5830 5833 5835
5705 5701 5697 5694 5691 5689 5688 5687 5687 5688 5689 5691 5693 5696 5700 5704 5708 5712 5716 5721 5726 5731 5737 5742 5748 5753 5759 5764 5770 5775 5781 5788 5793 5798 5803 5808 5812 5816 5820 5823 5826 5829 5831
5692 5687 5684 5681 5678 5676 5674 5673 5672 5672 5673 5675 5677 5679 5683 5687 5692 5697 5702 5708 5714 5719 5725 5731 5737 5743 5749 5755 5761 5767 5773 5780 5786 5792 5797 5802 5807 5811 5815 5819 5822 5825 5827
5679 5674 5671 5667 5664 5662 5660 5658 5656 5656 5656 5657 5659 5661 5665 5669 5675 5680 5686 5693 5699 5706 5713 5719 5726 5732 5738 5744 5751 5757 5765 5772 5779 5785 5791 5796 5801 5806 5810 5814 5817 5820 5822
5667 5663 5658 5654 5651 5647 5645 5642 5640 5639 5638 5638 5639 5641 5644 5649 5655 5661 5669 5676 5684 5692 5699 5707 5714 5720 5727 5733 5740 5748 5756 5764 5771 5777 5784 5790 5795 5801 5805 5809 5812 5815 5818
5656 5651 5646 5641 5637 5633 5629 5625 5623 5621 5619 5618 5618 5619 5622 5627 5633 5641 5649 5658 5666 5676 5685 5693 5701 5708 5715 5723 5731 5738 5746 5755 5762 5769 5776 5783 5789 5794 5799 5803 5807 5810 5813
5645 5639 5634 5628 5623 5618 5613 5608 5605 5602 5600 5598 5597 5598 5600 5605 5611 5619 5628 5637 5648 5658 5669 5678 5688 5696 5705 5713 5721 5729 5737 5746 5755 5762 5768 5775 5782 5788 5793 5797 5801 5804 5808
5634 5627 5621 5614 5609 5602 5596 5591 5587 5583 5580 5578 5577 5577 5579 5583 5588 5596 5606 5616 5628 5639 5652 5663 5674 5684 5693 5702 5710 5719 5727 5735 5744 5752 5760 5767 5774 5780 5786 5791 5795 5799 5802
5623 5615 5608 5601 5595 5588 5581 5575 5569 5565 5561 5558 5557 5557 5559 5562 5568 5575 5585 5596 5608 5621 5635 5648 5661 5671 5680 5690 5699 5708 5717 5725 5734 5743 5752 5760 5767 5773 5779 5784 5789 5793 5796
5612 5604 5596 5589 5582 5575 5567 5560 5553 5548 5543 5540 5537 5537 5539 5543 5548 5555 5565 5578 5591 5603 5616 5630 5644 5656 5667 5678 5687 5696 5705 5715 5725 5734 5743 5752 5759 5765 5771 5777 5782 5787 5790
5602 5594 5586 5578 5570 5563 5554 5546 5538 5532 5526 5522 5520 5519 5521 5525 5530 5537 5548 5560 5574 5587 5601 5616 5629 5642 5654 5666 5676 5686 5697 5707 5716 5726 5735 5743 5750 5757 5764 5770 5776 5780 5785